Location: Abundant Grace Fellowship
(35.0349°N, 90.0924°W)
Time: 21:57:00
(UTC+00:00)

Cosmos 2228 Rocket - Pass Details

Date: 18 January 2026
Orbit: 611 x 647 km, 82.5° (Epoch: 10 February)

Event Time Altitude Azimuth Distance (km) Brightness Sun altitude
Rises 01:25:33 0° 197° (SSW) 2,931 6.8 -26.6°
Reaches altitude 10° 01:27:51 10° 203° (SSW) 2,021 6.0 -27.1°
Maximum altitude 01:32:13 50° 279° (W) 805 3.9 -28.0°
Enters shadow 01:32:46 47° 305° (NW) 838 3.9 -28.1°
